www.pogodaiklimat.ru

АРХИВ ПОГОДЫ в Майами

Время (UTC), дата Ветер
(напр.,м/с)
 
Видим.   Явления Облачность Т
(С)
Тd
(С)
f
(%)
Тe
(С)
Тes
(С)
Комфортность

P
(гПа)

Po
(гПа)
Тmin
(С)
Tmax
(С)
R
(мм)
SD
(см)
21:53 15.07 ЮВ  16 км    8/2 1050 м
[средняя верхняя] 
+31.0  +22.0  59  +40  +41  очень
душно 
1016.5  1016.1         
22:53 15.07 ЮВ  16 км    8/2 900 м
[средняя верхняя] 
+29.4  +22.2  65  +38  +39  очень
душно 
1016.7  1016.1  +29.4  +32.8     
23:53 15.07 ЮВ  16 км    5/2 900 м
[средняя верхняя] 
+29.0  +23.0  70  +39  +39  очень
душно 
1017.1  1016.5         
00:53 16.07 ЮВ  16 км    5/2 750 м
[средняя верхняя] 
+28.0  +23.0  74  +37  +37  очень
душно 
1017.5  1017.1         
01:53 16.07 Ю  16 км    5/2 840 м
[верхняя] 
+28.0  +23.0  74  +37  +37  очень
душно 
1018.1  1017.5         
02:53 16.07 Ю  16 км    5/2 840 м
[верхняя] 
+28.0  +24.0  79  +39  +39  очень
душно 
1018.2  1017.8         
03:53 16.07 Ю  16 км    5/2 1050 м
[верхняя] 
+27.0  +23.0  79  +36  +36  очень
душно 
1018.1  1017.8         
04:53 16.07 Ю  16 км    5/2 1050 м
[верхняя] 
+28.0  +23.0  74  +37  +37  очень
душно 
1018.1  1017.8  +27.2       
05:53 16.07 Ю  16 км    5/2 990 м
[верхняя] 
+27.2  +23.3  79  +37  +37  очень
душно 
1017.3  1016.8         
06:53 16.07 Ю  16 км    5/2 900 м
[средняя верхняя] 
+27.2  +22.8  77  +36  +36  очень
душно 
1017.3  1016.8         
07:53 16.07 Ю  16 км    5/2 900 м
[средняя верхняя] 
+27.0  +22.0  74  +35  +35  очень
душно 
1017.1  1016.8         
08:53 16.07 нст  16 км    5/2 900 м
[средняя верхняя] 
+27.0  +23.0  79  +36  +36  очень
душно 
1017.6  1017.1         
09:53 16.07 нст  16 км    8/5 780 м
[средняя верхняя] 
+27.0  +23.0  79  +36  +36  очень
душно 
1018.1  1017.5         
10:53 16.07 Ю  16 км    8/5 840 м
[верхняя] 
+28.0  +23.0  74  +37  +37  очень
душно 
1018.4  1017.8  +26.7  +27.8     
11:53 16.07 Ю  16 км    8/5 840 м
[верхняя] 
+29.0  +24.0  74  +40  +41  очень
душно 
1018.8  1018.5         
12:53 16.07 ЮЗ  16 км    8/2 900 м
[верхняя] 
+30.0  +23.9  70  +41  +44  опасность
перегрева 
1019.0  1018.5         
13:53 16.07 Ю  16 км    8/5 1050 м
[верхняя] 
+31.0  +23.0  62  +41  +45  опасность
перегрева 
1018.9  1018.5         
14:53 16.07 ЮВ  16 км    8/8 1050 м
[верхняя] 
+31.0  +24.0  66  +43  +45  опасность
перегрева 
1019.2  1018.8         
15:48 16.07 ЮВ  16 км  гроза  8/8 960 м
[верхняя] 
0.0  0.0  100  -6  -4      1018.5         
15:53 16.07 Ю  16 км  гроза  8/8 960 м
[верхняя] 
+31.7  +25.0  68  +45  +47  опасность
перегрева 
1018.9  1018.5         
16:53 16.07 штиль  16 км  гроза  8/8 930 м
[верхняя] 
+30.6  +23.3  65  +41  +47  опасность
перегрева 
  1018.5  +27.8  +32.8     
17:07 16.07 штиль  16 км    8/5 900 м
[верхняя] 
+30.6  +23.9  67  +42  +55  опасность
перегрева 
  1018.5         
17:49 16.07 ЮВ  16 км  гроза  8/2 900 м
[верхняя] 
+32.0  +24.0  63  +44  +51  опасность
перегрева 
           
17:53 16.07 ЮВ  4
{8} 
16 км  гроза  8/2 900 м
[верхняя] 
+32.2  +23.9  62  +44  +54  опасность
перегрева 
1018.5           
18:23 16.07 ЮВ  16 км    8/2 1110 м
[средняя верхняя] 
+32.2  +23.3  59  +43  +47  опасность
перегрева 
  1017.5         
18:53 16.07 ЮВ  16 км    8/2 1080 м
[средняя верхняя] 
+32.8  +23.9  60  +45  +48  опасность
перегрева 
1017.7  1017.1         
19:48 16.07 ЮВ  16 км  гроза  8/2 1080 м
[средняя верхняя] 
+31.0  +23.0  62  +41  +43  опасность
перегрева 
  1017.5         
19:53 16.07 ЮВ  16 км  гроза  8/2 1080 м
[средняя верхняя] 
+31.0  +24.0  66  +43  +45  опасность
перегрева 
1017.8  1017.5         
20:53 16.07 З  16 км  гроза  8/5 1050 м
[верхняя] 
+28.9  +22.8  70  +38  +42  очень
душно 
1018.2  1017.8         
21:18 16.07 З   16 км    8/5 1140 м
[верхняя] 
+28.3  +23.3  74  +38  +40  очень
душно 
  1017.5         
21:53 16.07 Ю  16 км    8/2 1140 м
[средняя верхняя] 
+28.9  +23.9  74  +40  +42  очень
душно 
  1016.8         
22:53 16.07 Ю  16 км    8/2 1050 м
[верхняя] 
+29.0  +24.0  74  +40  +41  очень
душно 
1017.8  1017.5  +28.3  +32.8     
23:53 16.07 нст  16 км    5/2 900 м
[верхняя] 
+28.9  +23.9  74  +40  +40  очень
душно 
  1018.1         
00:53 17.07 ЮВ  16 км    2/2 900 м
[верхняя] 
+28.3  +23.9  77  +39  +39  очень
душно 
1019.0  1018.5         
01:53 17.07 ЮВ  16 км    5/2 900 м
[верхняя] 
+28.0  +24.0  79  +39  +39  очень
душно 
1019.3  1018.8         
02:53 17.07 Ю  16 км    5/2 900 м
[верхняя] 
+28.0  +24.0  79  +39  +39  очень
душно 
1019.4  1018.8         
03:53 17.07 Ю  16 км    2/2 900 м
[верхняя] 
+28.0  +24.0  79  +39  +39  очень
душно 
1019.2  1018.8         
04:53 17.07 штиль  16 км    2/2 900 м
[верхняя] 
+27.0  +24.0  84  +37  +37  очень
душно 
1019.1  1018.8  +27.2       
05:53 17.07 ЮЗ  16 км    5/2 900 м
[верхняя] 
+27.2  +24.4  85  +38  +38  очень
душно 
1019.0  1018.5         
06:53 17.07 штиль  16 км    5/2 750 м
[верхняя] 
+27.2  +24.4  85  +38  +38  очень
душно 
1018.8  1018.5         
07:53 17.07 штиль  16 км    5/2 750 м
[верхняя] 
+27.0  +24.0  84  +37  +37  очень
душно 
1018.7  1018.1         
08:53 17.07 штиль  16 км    5/2 690 м
[верхняя] 
+27.0  +24.0  84  +37  +37  очень
душно 
1018.8  1018.5         
09:53 17.07 штиль  16 км    5/2 690 м
[верхняя] 
+27.2  +23.9  82  +37  +37  очень
душно 
1019.4  1018.8         
10:53 17.07 штиль  16 км    5/2 600 м
[верхняя] 
+28.0  +24.0  79  +39  +39  очень
душно 
1019.5  1019.2  +26.1       
11:53 17.07 Ю  16 км    8/2 750 м
[верхняя] 
+28.9  +24.4  77  +41  +42  опасность
перегрева 
1020.5  1020.2         
12:53 17.07 нст  16 км    8/2 780 м
[верхняя] 
+30.0  +24.4  72  +42  +46  опасность
перегрева 
1020.3  1019.8         
13:53 17.07 ЮВ  16 км    8/2 900 м
[верхняя] 
+31.0  +24.0  66  +43  +49  опасность
перегрева 
1020.2  1019.8         
14:53 17.07 ЮВ  16 км    8/2 960 м
[верхняя] 
+31.1  +23.9  66  +43  +49  опасность
перегрева 
1020.1  1019.5         

 

Местоположение метеостанции Miami International Airport: широта 25.7906 долгота -80.3164 высота над уровнем моря 3 м.

В архиве по умолчанию представлена погода в Майами за последние 1-2 суток. Обновление информации о фактической погоде в базе происходит ежечасно! Архивные данные за месяц целиком и за предыдущие месяцы Вы можете получить, выбрав интересующий диапазон дат из раскрывающегося списка и нажав кнопку "Ввод!".

Внимание! Архив погоды МЕТАР в базе сайта в настоящее время начинается c 1 января 2013 г. Нет смысла пытаться выбрать более раннюю дату.

Внимание! Время в таблицах - всемирное. Для получения местного времени необходимо прибавить поправку, которая в Майами равна -5 ч.

Ветер - указаны скорость ветра в м/с и направление, откуда дует ветер: С - северный, СВ - северо-восточный, В - восточный, ЮВ - юго-восточный, Ю - южный, ЮЗ - юго-западный, З - западный, СЗ - северо-западный.
Видимость - горизонтальная дальность видимости в метрах или километрах. При видимости от 1 до 10 км при отсутствии осадков обычно наблюдается дымка, при ухудшении видимости до 1 км и менее - туман. В сухую погоду видимость может ухудшаться дымом, пылью или мглою.
Атмосферные явления - указаны явления, наблюдавшиеся в указанный момент времени.
Облачность - указаны через наклонную черту верхняя и нижняя облачность в баллах и высота нижней границы облаков в метрах. Внимание: облачность, как и прочие метеорологические величины в США измеряются автоматическими метеостанциями. Указанные значения в баллах носят условный характер и показывают процент времени, в течение которого, в среднем, лазерный луч высотомера отражался от облаков обратно.
T - Температура воздуха - температура, измеренная на высоте 2 м над землей.
Td - Температура точки росы - температура, при понижении до которой содержащийся в воздухе водяной пар достигнет насыщения.
f - Относительная влажность воздуха - влажноcть воздуха, измеренная на высоте 2 м над землей.
Te - Эффективная температура - температура, которую ощущает одетый по сезону человек в тени. Характеристика душности погоды. При расчете учитывается влияние влажности воздуха и скорости ветра на теплоощущения человека.
Tes - Эффективная температура на солнце - температура, которую ощущает человек, с поправкой на солнечный нагрев. Характеристика знойности погоды. Зависит от высоты солнца над горизонтом, облачности и скорости ветра. Ночью, в пасмурную погоду, а также при ветре 12 м/с и более поправка равна нулю.
P - Атмосферное давление - приведенное к уровню моря атмосферное давление.
Po - Атмосферное давление - измеренное на уровне метеостанции атмосферное давление.
Tmin - Минимальная температура - минимум температуры воздуха на высоте 2 м над землей.
Tmax - Максимальная температура - максимум температуры воздуха на высоте 2 м над землей.
R - Количество осадков - Количество выпавших осадков за 3 или 6 часов, мм.
SD - Снежный покров - Высота снежного покрова, см.